Cincinnati, OH

12:49 PM EDT on April 29, 2017 (GMT -0400)
Cincinnati Municipal-Lunken

Weather History for KLUK - April, 2013

Change the Weather History Date:

Sunday, April 28, 2013

  Actual Average Record
Temperature  
Mean Temperature 60 °F -  
Max Temperature 70 °F 68 °F 84 °F (1981)
Min Temperature 54 °F 47 °F 31 °F (1976)
Degree Days  
Heating Degree Days 5    
Growing Degree Days 10 (Base 50)    
Moisture  
Dew Point 55 °F    
Average Humidity 89    
Maximum Humidity 100    
Minimum Humidity 73    
Precipitation  
Precipitation 0.07 in - - ()
Sea Level Pressure  
Sea Level Pressure 29.93 in    
Wind  
Wind Speed 6 mph (South)    
Max Wind Speed 14 mph    
Max Gust Speed 18 mph    
Visibility 9 miles    
Events Rain    
Averages and records for this station are not official NWS values.
T = Trace of Precipitation, MM = Missing Value Source: NWS Daily Summary

Daily Weather History Graph

Daily Weather History Graph

Search for Another Location

Airport or City:

Trip Planner

Search our weather history database for the weather conditions in past years. The results will help you decide how hot, cold, wet, or windy it might be!

Date:

Astronomy

Apr. 28, 2013 Rise Set
Actual Time 6:42 AM EDT 8:27 PM EDT
Civil Twilight 6:14 AM EDT 8:56 PM EDT
Nautical Twilight 5:39 AM EDT 9:31 PM EDT
Astronomical Twilight 5:02 AM EDT 10:08 PM EDT
Moon 11:56 PM EDT (4/28) 8:59 AM EDT (4/28)
Length of Visible Light 14h 42m
Length of Day
13h 45m
Waning Gibbous, 89% of the Moon is Illuminated
Apr 28
Waning Gibbous
May 2
Last Quarter
May 9
New
May 18
First Quarter
May 25
Full

Hourly Weather History & Observations

Time (EDT) Temp. Dew Point Humidity Pressure Visibility Wind Dir Wind Speed Gust Speed Precip Events Conditions
12:36 AM 57.2 °F 51.8 °F 82% 30.06 in 9.0 mi SE 9.2 mph - 0.00 in Rain Light Rain
12:53 AM 55.9 °F 53.1 °F 90% 30.05 in 6.0 mi SE 3.5 mph - 0.00 in Rain Light Rain
1:21 AM 55.4 °F 53.6 °F 94% 30.02 in 8.0 mi SE 8.1 mph - 0.00 in Rain Light Rain
1:53 AM 55.9 °F 54.0 °F 93% 30.01 in 10.0 mi SE 4.6 mph - 0.00 in   Overcast
2:03 AM 55.4 °F 53.6 °F 94% 30.01 in 10.0 mi SSE 5.8 mph - N/A   Overcast
2:53 AM 55.9 °F 54.0 °F 93% 29.97 in 10.0 mi South 6.9 mph - 0.00 in Rain Light Rain
3:48 AM 55.4 °F 53.6 °F 94% 29.96 in 10.0 mi South 4.6 mph - 0.00 in   Overcast
3:53 AM 55.9 °F 54.0 °F 93% 29.96 in 10.0 mi South 4.6 mph - 0.00 in   Overcast
4:53 AM 55.9 °F 55.0 °F 97% 29.96 in 10.0 mi South 6.9 mph - 0.00 in   Overcast
5:21 AM 55.4 °F 55.4 °F 100% 29.94 in 8.0 mi SE 4.6 mph - 0.00 in Rain Light Rain
5:53 AM 55.9 °F 54.0 °F 93% 29.94 in 10.0 mi ESE 3.5 mph - 0.00 in   Overcast
6:53 AM 55.9 °F 55.0 °F 97% 29.93 in 10.0 mi South 3.5 mph - N/A   Overcast
7:53 AM 55.9 °F 55.0 °F 97% 29.93 in 10.0 mi Calm Calm - N/A   Overcast
7:57 AM 57.2 °F 53.6 °F 88% 29.93 in 10.0 mi Calm Calm - N/A   Overcast
8:53 AM 57.2 °F 55.4 °F 94% 29.93 in 10.0 mi Variable 3.5 mph - N/A   Mostly Cloudy
9:53 AM 61.0 °F 55.9 °F 83% 29.92 in 10.0 mi SSE 6.9 mph - N/A   Overcast
10:53 AM 59.0 °F 55.0 °F 87% 29.93 in 10.0 mi South 4.6 mph - N/A   Overcast
11:48 AM 60.8 °F 55.4 °F 82% 29.93 in 5.0 mi South 11.5 mph - 0.01 in Rain Rain
11:53 AM 59.0 °F 55.9 °F 90% 29.93 in 5.0 mi South 8.1 mph - 0.01 in Rain Light Rain
12:32 PM 57.2 °F 57.2 °F 100% 29.92 in 5.0 mi SW 5.8 mph - 0.06 in Rain Light Rain
12:53 PM 61.0 °F 59.0 °F 93% 29.91 in 10.0 mi South 3.5 mph - 0.06 in   Overcast
1:53 PM 64.0 °F 60.1 °F 87% 29.88 in 10.0 mi SW 5.8 mph - 0.00 in   Mostly Cloudy
2:53 PM 66.0 °F 60.1 °F 81% 29.86 in 10.0 mi South 4.6 mph - 0.00 in   Overcast
3:53 PM 66.9 °F 57.9 °F 73% 29.84 in 10.0 mi SSW 9.2 mph - N/A   Overcast
4:53 PM 64.9 °F 57.9 °F 78% 29.83 in 10.0 mi SW 9.2 mph - 0.00 in Rain Light Rain
5:53 PM 64.9 °F 57.9 °F 78% 29.84 in 10.0 mi WSW 13.8 mph 18.4 mph 0.00 in   Mostly Cloudy
6:53 PM 63.0 °F 57.0 °F 81% 29.86 in 10.0 mi WSW 5.8 mph - N/A   Overcast
7:53 PM 62.1 °F 55.0 °F 78% 29.86 in 10.0 mi SW 5.8 mph - N/A   Mostly Cloudy
8:53 PM 59.0 °F 55.9 °F 90% 29.87 in 10.0 mi South 3.5 mph - N/A   Mostly Cloudy
9:53 PM 57.0 °F 54.0 °F 89% 29.91 in 10.0 mi SSW 6.9 mph - N/A   Mostly Cloudy
10:53 PM 54.0 °F 52.0 °F 93% 29.91 in 10.0 mi SW 6.9 mph - N/A   Partly Cloudy
11:53 PM 57.9 °F 53.1 °F 84% 29.91 in 10.0 mi SW 5.8 mph - N/A   Overcast